Temperature
18 18 18 18 17 17 17 17 17 17 17 17 17 17 17 17 17 17 17 17 17 17 17 17 17 17 16 16 16 16 16 16 16 16 16 16 16 16 15 15 15 15 15
18 18 18 18 17 17 17 17 17 17 17 17 17 17 17 17 17 17 17 17 17 17 17 17 17 16 16 16 16 16 16 16 16 16 16 16 16 16 15 15 15 15 15
18 18 18 18 18 17 18 17 17 17 17 17 17 17 17 17 17 17 17 17 17 17 17 17 17 17 16 16 16 16 16 16 16 16 16 16 16 15 15 15 15 15 15
18 18 18 17 17 18 18 17 17 17 17 17 17 17 17 17 17 17 17 17 17 17 17 17 16 16 16 16 16 16 16 16 16 16 16 16 16 15 15 15 15 15 15
18 17 17 17 17 17 17 17 17 17 17 17 17 17 17 17 17 17 17 17 17 17 17 17 16 16 16 16 16 16 16 16 16 16 16 16 16 15 15 15 15 15 15
18 17 17 17 17 17 17 17 17 17 17 17 17 17 17 17 17 17 17 17 17 17 17 17 16 16 16 16 16 16 16 16 16 16 16 16 16 15 15 15 15 15 15
17 17 17 17 17 17 17 17 17 17 17 17 17 17 17 17 17 17 17 17 17 17 17 16 16 16 16 16 16 16 16 16 16 16 16 16 15 15 15 15 15 15 15
18 17 17 17 17 17 17 17 17 17 17 17 17 17 17 17 17 17 17 17 17 17 17 17 16 16 16 16 16 16 16 16 16 16 16 16 15 15 15 15 15 15 15
17 17 17 17 17 17 17 17 17 17 17 17 17 17 17 17 17 17 17 17 17 17 17 17 17 16 16 16 16 16 16 16 15 15 15 15 15 15 15 15 15 15 14
17 17 17 17 17 17 17 17 17 17 17 17 17 17 17 17 17 17 17 17 17 17 17 17 17 16 16 16 16 16 16 16 15 15 15 15 15 15 15 15 14 14 14
18 17 17 17 17 17 17 17 17 17 17 17 17 17 17 17 17 16 16 17 17 17 17 17 17 17 16 16 16 16 16 16 15 15 15 15 15 15 15 14 14 14 14
17 17 17 17 17 17 17 17 17 17 17 17 17 17 17 17 17 17 16 16 16 16 16 16 16 16 16 16 16 16 16 15 15 15 15 15 15 14 14 14 14 14 14
17 17 17 17 17 17 17 17 17 17 17 17 17 17 17 17 17 16 16 16 16 16 16 16 16 16 16 16 16 15 15 15 15 15 15 14 14 14 14 14 14 14 13
17 17 17 17 17 17 17 17 17 17 17 17 17 17 17 17 16 16 16 16 16 15 15 15 16 16 15 15 15 15 15 15 15 15 14 14 14 14 14 14 13 13 13
17 17 17 17 17 17 17 17 17 17 17 17 17 17 17 16 16 16 16 16 16 15 15 15 15 15 15 15 15 14 14 14 14 14 14 14 14 13 13 13 13 13 13
17 17 17 17 17 17 17 17 16 16 16 17 16 16 16 16 16 16 16 16 15 15 15 15 15 15 14 14 14 14 14 14 14 14 14 13 13 13 13 13 12 12 12
17 17 17 17 17 17 16 16 16 16 16 16 16 16 16 16 16 16 16 16 15 15 15 14 14 14 14 14 14 14 13 13 13 13 13 13 13 12 12 12 12 12 12
17 17 17 17 16 16 16 16 16 16 16 16 16 16 16 16 16 16 16 15 15 15 15 14 14 14 13 13 13 13 13 13 13 12 12 12 12 12 12 12 11 11 11
17 17 17 17 16 16 16 16 16 16 16 16 16 16 16 15 15 15 15 15 15 15 14 14 14 13 13 13 13 13 12 12 12 12 12 12 11 11 11 11 11 10 10
17 17 16 16 16 16 16 16 16 16 16 15 15 15 15 15 15 15 15 15 14 14 14 14 14 13 13 12 12 12 12 12 11 11 11 11 11 11 10 10 10 10 10
17 16 16 16 16 16 16 15 15 15 15 15 15 15 15 15 15 14 14 14 14 14 14 13 13 13 12 12 12 11 11 11 10 10 10 10 10 10 9 9 9 9 9
17 16 16 16 16 16 15 15 15 15 15 15 15 14 14 14 14 14 14 14 14 14 13 13 13 12 12 12 11 11 11 10 10 9 9 9 9 9 9 8 8 8 8
16 16 16 16 15 15 15 15 15 15 14 14 14 14 14 14 14 14 14 13 13 13 13 13 13 12 12 12 11 11 10 10 10 9 9 9 8 8 8 8 8 8 8
16 16 16 15 15 15 15 15 14 14 14 14 14 14 13 13 13 13 13 13 13 13 12 12 12 12 12 11 11 11 10 10 9 9 9 8 8 8 8 8 8 7 7
16 16 15 15 15 14 14 14 14 14 14 14 13 13 13 13 13 13 12 12 12 12 12 12 11 11 11 11 10 10 10 9 9 8 8 8 8 8 8 7 7 7 7
16 15 15 15 14 14 14 14 14 14 13 13 13 13 12 12 12 12 12 12 12 12 11 11 11 11 10 10 10 10 10 9 9 8 8 8 8 8 7 7 7 7 7
Wind_Speed
2 2 1 2 2 2 2 2 3 2 3 3 4 4 4 4 5 5 5 7 8 9 9 9 9 9 9 9 10 10 9 9 9 9 9 9 8 8 9 8 8 8 7
4 3 2 1 1 1 1 2 2 2 2 2 2 3 3 4 4 5 5 5 7 8 9 9 9 9 10 10 10 10 10 10 10 10 9 9 9 9 9 9 8 8 8
5 4 2 2 1 2 2 2 2 2 1 1 1 1 2 3 4 5 5 5 6 8 9 10 10 10 10 10 10 10 10 10 11 11 11 10 10 10 9 9 9 9 9
7 5 3 2 3 3 2 2 1 1 1 1 1 1 1 2 4 5 5 5 5 6 8 10 10 11 11 11 11 11 11 11 11 12 11 11 11 11 10 10 10 10 10
8 6 4 3 4 3 2 2 1 1 1 1 1 1 1 2 3 5 5 6 6 6 6 8 10 11 12 12 11 11 11 12 12 12 12 12 12 11 11 11 11 11 10
8 7 4 4 4 2 2 2 2 1 1 1 1 0 1 2 2 3 4 5 6 7 7 7 8 9 12 12 12 12 12 12 13 13 13 13 13 12 12 12 12 12 11
8 7 4 4 4 3 4 3 2 2 1 2 1 1 2 1 2 2 3 3 4 6 6 7 8 7 7 10 12 12 12 12 13 14 14 13 12 12 12 12 12 12 11
8 7 5 4 4 3 3 4 3 2 2 2 2 1 1 2 1 1 2 3 3 3 5 6 6 6 7 7 8 11 12 12 12 13 13 13 12 12 12 11 12 12 12
7 6 6 5 4 4 4 4 4 4 3 2 3 3 3 3 1 1 1 2 2 2 3 3 4 5 6 6 7 8 10 11 11 11 11 12 12 12 11 11 11 11 10
5 6 6 6 5 4 4 5 5 4 4 3 2 2 2 3 2 1 1 1 1 2 2 2 3 4 4 4 5 6 7 8 9 9 10 9 10 10 11 10 10 9 9
4 5 6 5 5 4 5 5 4 5 4 4 4 3 3 2 2 2 2 1 1 1 2 2 2 3 3 4 4 5 6 7 7 7 7 7 8 8 9 9 8 8 8
2 3 5 5 5 4 5 5 5 5 5 4 4 4 4 3 4 4 4 3 2 1 1 1 1 1 2 2 3 3 4 5 6 6 6 6 6 6 7 7 7 6 6
2 4 3 3 3 4 4 4 4 4 5 5 5 4 5 4 3 4 4 3 2 1 0 0 0 1 1 1 2 3 3 3 4 5 5 5 5 5 5 5 5 6 6
3 3 3 3 3 3 3 3 3 4 4 5 5 5 4 4 4 4 4 4 2 2 1 1 1 0 1 2 2 3 3 3 4 5 6 6 7 6 6 6 6 7 7
2 2 2 2 2 2 2 2 2 3 3 3 4 4 3 3 3 4 4 5 5 4 3 2 1 1 2 3 3 4 4 5 6 7 7 7 7 7 8 8 8 9 9
2 2 2 2 2 2 2 2 2 2 2 3 3 3 3 3 3 4 4 4 4 4 3 2 2 1 3 4 5 5 6 7 8 8 8 9 8 8 8 9 9 9 9
2 2 2 2 1 1 1 2 2 2 2 2 2 3 3 3 3 3 3 3 4 4 4 1 1 2 2 3 4 6 7 7 8 8 8 8 8 8 8 8 8 9 9
2 2 2 2 2 1 1 1 1 1 1 2 1 2 2 2 2 2 2 3 3 3 4 4 2 2 2 4 5 6 6 7 8 10 9 9 8 8 8 7 7 7 8
3 3 2 2 2 1 1 1 1 1 1 1 1 1 1 1 1 1 2 2 2 3 3 4 3 2 2 3 4 5 6 6 7 8 9 10 9 9 8 7 7 7 7
3 3 3 2 2 1 1 1 1 1 1 1 0 0 0 0 1 1 1 2 3 4 4 4 4 3 2 3 4 4 4 3 3 5 8 8 9 9 9 8 8 8 9
3 3 4 3 2 2 1 1 1 1 2 2 2 2 2 2 1 1 1 2 4 4 4 4 4 3 3 4 4 3 4 4 3 3 4 5 5 6 6 7 8 8 9
3 4 4 3 3 2 2 3 3 2 3 2 2 3 3 3 4 4 3 4 4 4 5 4 4 4 4 4 3 5 5 4 2 1 2 2 3 3 3 4 6 7 8
4 4 4 3 3 2 4 4 4 3 3 2 2 2 2 4 4 4 5 6 5 4 4 4 5 5 5 5 6 5 4 3 2 3 3 2 1 1 1 3 4 5 5
3 3 3 3 3 3 4 4 5 4 4 3 3 3 3 3 3 4 5 5 5 5 3 2 3 3 4 6 6 5 5 5 4 2 2 2 1 1 1 2 3 4 4
3 3 3 3 3 2 3 4 4 3 3 3 3 3 3 3 4 4 5 5 5 5 7 7 6 6 7 9 9 7 6 5 3 1 1 2 2 1 0 1 2 4 5
4 4 3 3 2 2 2 4 4 3 3 2 3 3 4 4 4 5 4 5 5 3 4 6 7 7 7 7 8 6 6 6 3 2 2 3 2 2 1 1 1 3 4
Wind_Direction
150 134 101 80 77 97 109 103 103 107 114 126 152 165 169 174 180 184 193 195 193 192 188 187 189 187 184 183 182 181 181 184 183 183 184 183 182 182 179 175 178 177 176
173 162 151 138 113 123 141 131 126 124 125 133 155 168 176 178 185 190 200 205 203 200 199 199 198 195 192 192 194 193 195 196 195 194 193 193 193 192 188 186 189 190 186
185 179 172 180 186 162 137 117 105 102 121 128 147 167 180 193 197 200 204 210 212 208 206 208 206 201 201 203 204 203 205 204 202 199 199 201 202 203 201 199 198 198 196
191 185 184 197 192 169 154 141 131 119 130 151 190 220 199 203 215 215 212 212 212 214 215 213 211 209 210 211 212 212 211 213 210 207 206 208 211 213 211 210 206 204 205
195 192 198 204 187 171 178 182 154 163 182 194 214 243 229 224 227 225 216 215 216 215 218 224 223 221 221 223 222 220 218 220 218 215 214 216 217 219 217 214 212 211 213
198 196 203 204 182 172 189 187 177 165 174 185 210 283 279 249 234 233 226 218 217 222 225 230 233 235 234 233 232 229 226 223 222 221 220 220 220 219 216 216 217 217 216
198 195 202 193 185 192 201 192 175 177 191 154 122 352 332 306 256 244 230 223 224 227 231 232 231 233 237 238 237 236 233 229 225 223 223 222 220 217 216 218 220 219 218
201 203 197 197 195 196 194 191 180 171 186 171 158 135 328 335 337 271 227 225 232 232 236 233 229 230 234 239 241 238 237 234 230 227 224 219 218 216 217 220 221 221 222
206 207 201 198 199 196 206 207 191 184 196 201 186 165 176 231 289 337 285 236 231 229 235 228 228 229 232 238 242 241 235 234 233 229 220 216 215 216 217 220 219 218 217
211 208 203 201 198 199 208 215 202 197 188 204 204 209 201 176 181 276 334 313 260 247 248 248 243 234 231 232 232 230 228 229 228 227 220 214 212 211 214 212 211 207 203
218 211 203 200 202 208 213 214 202 202 201 201 198 189 200 208 203 202 252 292 344 296 258 247 249 243 229 222 219 218 220 223 221 217 210 209 205 199 200 204 207 205 197
233 226 213 204 206 209 213 215 210 206 210 211 209 200 189 190 197 197 221 237 253 284 292 281 263 248 219 210 204 195 203 206 200 198 201 203 201 201 204 200 197 192 184
234 235 224 212 211 211 211 210 208 214 212 214 217 221 216 216 192 183 196 214 228 244 268 318 329 280 203 150 163 172 176 175 175 176 174 173 171 167 166 170 167 162 152
227 226 210 206 203 203 213 208 213 221 215 217 224 220 221 222 206 195 190 186 208 229 216 225 21 47 121 117 127 135 122 146 156 156 156 152 150 151 146 142 141 139 132
209 204 198 200 202 197 194 201 219 229 220 221 224 221 225 232 219 215 203 193 192 216 233 208 193 168 132 119 122 116 112 110 122 127 131 137 140 140 137 134 132 130 127
189 184 197 197 203 195 186 199 222 230 214 227 222 216 229 235 218 212 212 210 203 200 220 202 197 171 127 119 112 112 110 107 113 119 121 124 127 129 129 130 131 130 129
176 179 188 181 180 194 189 189 223 223 218 227 219 211 232 226 217 217 213 206 201 189 201 205 157 135 132 123 107 101 98 98 101 107 111 116 121 124 124 127 129 130 130
151 152 145 143 142 140 164 187 230 230 206 219 223 212 235 219 214 219 209 203 196 186 181 184 168 152 133 129 116 103 97 95 94 94 97 101 106 113 119 125 128 129 131
132 126 125 128 126 121 129 184 185 188 188 209 206 206 233 208 219 215 198 189 176 165 165 165 160 134 120 128 115 99 91 86 92 93 90 88 90 97 103 112 122 129 130
141 133 126 121 117 112 102 84 103 111 92 56 52 96 88 161 208 202 186 177 161 153 151 152 149 135 130 130 126 123 106 80 78 86 89 87 86 87 91 99 109 117 122
140 134 120 105 90 96 78 73 86 99 86 62 46 42 47 67 84 121 144 161 158 157 154 153 149 136 139 153 153 144 133 111 69 79 86 74 79 78 80 92 103 111 114
122 122 115 109 93 75 67 87 96 96 91 84 63 41 41 50 63 80 93 109 138 156 164 161 160 165 175 167 153 151 143 139 133 124 106 82 75 75 80 98 107 110 111
121 115 114 117 107 72 75 85 90 94 89 76 67 54 54 50 56 70 73 76 77 88 138 160 166 178 177 177 167 162 159 148 145 152 135 120 99 111 133 124 121 124 123
120 119 117 115 105 83 88 95 94 93 84 66 57 53 65 52 56 82 86 77 65 54 65 117 153 166 165 165 167 163 149 122 93 94 139 146 163 168 147 150 153 155 157
127 121 119 119 112 85 90 104 101 100 89 65 55 54 68 68 57 85 101 97 80 58 61 83 96 111 126 137 141 136 139 142 141 151 156 148 159 152 155 190 175 177 180
142 137 125 122 122 106 99 111 114 116 106 83 59 49 57 71 74 86 107 112 104 85 84 82 83 90 107 125 136 151 162 162 153 166 177 161 156 156 163 183 185 189 195
Height
1564 1565 1566 1567 1568 1569 1571 1572 1573 1574 1575 1575 1576 1577 1578 1578 1578 1579 1579 1580 1580 1581 1582 1582 1583 1584 1585 1586 1587 1588 1589 1590 1591 1592 1593 1593 1594 1595 1596 1597 1598 1598 1599
1565 1566 1567 1568 1569 1570 1572 1572 1573 1574 1575 1576 1577 1577 1578 1578 1579 1579 1580 1580 1581 1581 1581 1582 1583 1584 1584 1585 1586 1587 1588 1589 1590 1591 1592 1593 1594 1595 1595 1596 1597 1598 1598
1565 1566 1568 1569 1570 1571 1572 1573 1574 1575 1576 1576 1577 1578 1578 1578 1579 1579 1580 1580 1580 1580 1581 1582 1582 1583 1584 1585 1585 1586 1587 1588 1589 1590 1591 1592 1593 1593 1594 1595 1596 1596 1597
1565 1566 1568 1569 1570 1571 1572 1573 1574 1575 1576 1576 1577 1577 1578 1578 1578 1579 1579 1579 1579 1580 1580 1581 1581 1582 1583 1583 1584 1585 1586 1587 1587 1588 1589 1590 1591 1592 1593 1594 1594 1595 1596
1565 1566 1568 1569 1570 1571 1572 1573 1574 1575 1575 1576 1576 1577 1577 1577 1578 1578 1578 1578 1579 1579 1579 1580 1580 1581 1581 1582 1583 1584 1584 1585 1585 1586 1587 1588 1589 1590 1591 1592 1593 1593 1594
1565 1566 1567 1569 1569 1570 1571 1572 1573 1574 1574 1575 1575 1576 1576 1576 1576 1577 1577 1577 1577 1577 1578 1578 1579 1579 1580 1580 1581 1581 1582 1583 1583 1584 1585 1586 1587 1588 1589 1589 1590 1591 1592
1564 1565 1566 1567 1568 1569 1570 1571 1572 1572 1573 1574 1574 1574 1574 1574 1574 1575 1575 1575 1575 1576 1576 1576 1577 1577 1578 1578 1579 1579 1580 1580 1581 1582 1583 1584 1585 1585 1586 1587 1588 1588 1589
1562 1564 1565 1566 1567 1568 1568 1569 1570 1571 1571 1572 1573 1573 1573 1573 1572 1572 1572 1573 1573 1573 1574 1574 1574 1575 1575 1576 1576 1577 1577 1578 1578 1579 1580 1581 1582 1583 1583 1584 1585 1585 1586
1561 1562 1563 1564 1565 1566 1566 1567 1568 1568 1569 1570 1571 1572 1571 1570 1570 1570 1570 1570 1570 1571 1571 1572 1572 1572 1573 1573 1574 1574 1574 1575 1576 1576 1577 1577 1578 1579 1580 1581 1582 1582 1583
1559 1560 1561 1562 1563 1564 1564 1565 1566 1566 1567 1567 1568 1568 1569 1569 1569 1568 1568 1568 1568 1568 1569 1569 1569 1570 1570 1571 1571 1571 1572 1572 1572 1573 1574 1574 1575 1576 1577 1578 1579 1579 1580
1557 1558 1559 1560 1561 1561 1562 1562 1563 1564 1564 1564 1565 1565 1566 1566 1566 1566 1565 1566 1566 1566 1566 1566 1567 1567 1568 1568 1568 1568 1569 1569 1570 1570 1571 1572 1572 1573 1574 1575 1575 1576 1577
1555 1556 1556 1557 1558 1558 1559 1560 1560 1560 1561 1561 1562 1562 1562 1563 1563 1563 1563 1562 1562 1563 1564 1564 1564 1564 1565 1565 1565 1566 1566 1566 1567 1568 1568 1569 1569 1570 1571 1572 1572 1573 1574
1552 1553 1553 1554 1555 1555 1556 1556 1557 1557 1557 1558 1558 1558 1559 1559 1560 1560 1560 1559 1559 1560 1560 1561 1561 1561 1562 1562 1562 1563 1563 1563 1564 1564 1565 1566 1566 1567 1568 1568 1569 1570 1570
1549 1550 1551 1551 1552 1552 1552 1553 1553 1554 1554 1554 1554 1555 1555 1555 1556 1556 1556 1556 1556 1556 1557 1557 1558 1558 1559 1559 1559 1560 1560 1560 1560 1561 1562 1562 1563 1564 1564 1565 1565 1566 1567
1547 1548 1548 1548 1549 1549 1550 1550 1550 1550 1550 1550 1551 1551 1551 1551 1552 1552 1552 1552 1553 1552 1553 1553 1554 1555 1556 1556 1556 1557 1557 1557 1557 1558 1558 1559 1559 1560 1561 1561 1562 1563 1564
1544 1545 1546 1546 1546 1547 1547 1547 1547 1547 1547 1547 1547 1547 1547 1548 1548 1548 1548 1548 1548 1549 1549 1549 1550 1551 1552 1553 1553 1553 1554 1554 1554 1555 1555 1556 1557 1558 1558 1559 1560 1560 1561
1542 1543 1543 1543 1544 1544 1544 1545 1545 1545 1545 1544 1544 1543 1544 1544 1544 1544 1544 1544 1544 1545 1545 1546 1547 1548 1549 1549 1550 1550 1551 1551 1551 1552 1553 1554 1555 1555 1556 1556 1557 1558 1559
1540 1541 1541 1541 1542 1542 1542 1543 1542 1542 1542 1541 1541 1541 1541 1541 1541 1541 1540 1540 1541 1541 1542 1542 1543 1544 1545 1546 1547 1547 1548 1548 1549 1550 1551 1551 1552 1553 1553 1554 1555 1556 1557
1538 1539 1539 1540 1540 1540 1540 1540 1540 1540 1540 1539 1539 1538 1538 1538 1538 1537 1537 1537 1537 1538 1539 1539 1540 1541 1542 1543 1544 1545 1545 1546 1547 1548 1548 1549 1550 1551 1551 1552 1552 1553 1554
1536 1537 1537 1538 1538 1538 1538 1538 1538 1538 1538 1537 1537 1537 1536 1536 1535 1535 1535 1535 1535 1535 1536 1536 1537 1538 1539 1540 1541 1542 1543 1544 1545 1546 1546 1547 1548 1549 1549 1550 1550 1551 1552
1535 1535 1536 1536 1536 1537 1537 1537 1536 1536 1536 1536 1535 1535 1534 1534 1534 1533 1533 1533 1533 1533 1533 1533 1534 1535 1536 1537 1538 1540 1541 1542 1543 1544 1545 1546 1547 1547 1548 1548 1549 1550 1550
1533 1534 1534 1535 1535 1535 1535 1535 1535 1535 1534 1534 1534 1534 1533 1533 1532 1532 1531 1531 1531 1531 1531 1531 1532 1533 1534 1535 1537 1538 1539 1540 1541 1544 1544 1545 1546 1547 1547 1548 1549 1549 1550
1532 1532 1533 1533 1533 1534 1534 1534 1534 1533 1533 1533 1533 1532 1532 1531 1531 1531 1530 1529 1529 1529 1530 1530 1530 1531 1532 1533 1535 1536 1537 1539 1540 1542 1543 1544 1545 1546 1547 1548 1549 1549 1550
1531 1531 1532 1532 1532 1533 1533 1533 1532 1532 1532 1532 1532 1531 1531 1530 1530 1530 1529 1529 1528 1528 1529 1529 1530 1530 1531 1532 1533 1535 1536 1537 1539 1541 1542 1543 1544 1546 1547 1547 1548 1549 1550
1530 1530 1530 1531 1531 1531 1532 1531 1531 1531 1531 1531 1530 1530 1530 1530 1529 1529 1529 1528 1528 1528 1528 1529 1529 1529 1530 1531 1532 1534 1535 1536 1537 1539 1541 1542 1543 1544 1546 1547 1547 1548 1549
1528 1529 1529 1529 1530 1530 1530 1530 1530 1530 1530 1530 1529 1529 1529 1529 1528 1528 1528 1528 1527 1528 1528 1528 1528 1529 1530 1531 1532 1533 1534 1535 1536 1538 1540 1541 1542 1543 1544 1545 1546 1547 1547